TimePDT,TemperatureF,Dew PointF,Humidity,Sea Level PressureIn,VisibilityMPH,Wind Direction,Wind SpeedMPH,Gust SpeedMPH,PrecipitationIn,Events,Conditions,WindDirDegrees,DateUTC
12:53 AM,68.0,39.9,36,29.86,10.0,NNW,6.9,-,N/A,,Clear,330,2013-07-28 07:53:00
1:53 AM,68.0,39.9,36,29.85,10.0,NNW,12.7,-,N/A,,Clear,330,2013-07-28 08:53:00
2:53 AM,64.9,39.9,40,29.85,10.0,NNW,4.6,-,N/A,,Clear,330,2013-07-28 09:53:00
3:53 AM,66.9,39.0,36,29.85,10.0,NNW,9.2,-,N/A,,Clear,340,2013-07-28 10:53:00
4:53 AM,63.0,39.0,41,29.85,10.0,NNW,11.5,-,N/A,,Clear,330,2013-07-28 11:53:00
5:53 AM,57.0,39.9,53,29.86,10.0,Calm,Calm,-,N/A,,Clear,0,2013-07-28 12:53:00
6:53 AM,57.9,39.9,51,29.87,10.0,West,4.6,-,N/A,,Clear,270,2013-07-28 13:53:00
7:53 AM,69.1,39.9,35,29.87,10.0,Calm,Calm,-,N/A,,Clear,0,2013-07-28 14:53:00
8:53 AM,73.0,41.0,31,29.87,10.0,North,5.8,-,N/A,,Clear,360,2013-07-28 15:53:00
9:53 AM,77.0,39.0,25,29.86,10.0,Variable,4.6,-,N/A,,Clear,0,2013-07-28 16:53:00
10:53 AM,81.0,34.0,18,29.85,10.0,Calm,Calm,-,N/A,,Clear,0,2013-07-28 17:53:00
11:53 AM,84.0,34.0,17,29.84,10.0,Variable,3.5,-,N/A,,Clear,0,2013-07-28 18:53:00
12:53 PM,84.9,33.1,16,29.82,10.0,Calm,Calm,-,N/A,,Clear,0,2013-07-28 19:53:00
1:53 PM,88.0,34.0,15,29.80,10.0,SSW,6.9,-,N/A,,Partly Cloudy,210,2013-07-28 20:53:00
2:53 PM,89.1,35.1,15,29.79,10.0,South,6.9,-,N/A,,Partly Cloudy,180,2013-07-28 21:53:00
3:53 PM,88.0,36.0,16,29.77,10.0,WSW,6.9,-,N/A,,Clear,250,2013-07-28 22:53:00
4:53 PM,91.0,36.0,14,29.76,10.0,Calm,Calm,-,N/A,,Partly Cloudy,0,2013-07-28 23:53:00
5:53 PM,90.0,35.1,14,29.76,10.0,Calm,Calm,-,N/A,,Clear,0,2013-07-29 00:53:00
6:53 PM,86.0,43.0,22,29.76,10.0,NNW,10.4,-,N/A,,Clear,330,2013-07-29 01:53:00
7:53 PM,81.0,42.1,25,29.78,10.0,NNW,11.5,-,N/A,,Clear,330,2013-07-29 02:53:00
8:53 PM,77.0,39.9,26,29.79,10.0,NNW,12.7,-,N/A,,Clear,340,2013-07-29 03:53:00
9:53 PM,73.0,39.0,29,29.81,10.0,NW,8.1,-,N/A,,Clear,310,2013-07-29 04:53:00
10:53 PM,72.0,39.9,31,29.82,10.0,NNW,8.1,-,N/A,,Clear,330,2013-07-29 05:53:00
11:53 PM,70.0,43.0,38,29.84,10.0,North,10.4,-,N/A,,Clear,360,2013-07-29 06:53:00